Location: Churchill Northern Studies Centre
(58.7378°N, 93.8201°W)
Time: 07:37:37
(UTC-05:00)

Envisat - Pass Details

Date: 09 October 2017
Orbit: 764 x 766 km, 98.2° (Epoch: 20 October)

Event Time Altitude Azimuth Distance (km) Brightness Sun altitude
Exits shadow 19:04:27 - 118° (ESE) 2,993 5.5 -5.9°
Reaches altitude 10° 19:06:23 10° 109° (ESE) 2,308 4.9 -6.2°
Maximum altitude 19:10:36 27° 53° (NE) 1,443 4.0 -6.7°
Drops below altitude 10° 19:14:50 10° 357° (N) 2,318 5.5 -7.3°
Sets 19:17:26 0° 346° (NNW) 3,248 6.4 -7.6°
